Location: Starry Hill Observatory
(46.8582°N, 122.3590°W)
Time: 02:54:19
(UTC-08:00)

Daily predictions for brighter satellites

Satellite Brightness Start Highest point End
(mag) Time Altitude Azimuth Time Altitude Azimuth Time Altitude Azimuth
Lacrosse 5 4.3 04:03:43 17° ESE 04:03:43 17° ESE 04:04:55 10° ESE
Cosmos 2263 Rocket 3.8 04:28:51 25° NNE 04:28:51 25° NNE 04:31:05 10° NNE
USA 234 3.9 04:19:47 10° NE 04:24:46 46° NNE 04:24:46 46° NNE
COSMOS 2455 3.1 04:39:21 66° E 04:39:21 66° E 04:45:05 10° NE
COSMO-SKYMED 1 4.3 04:37:29 10° SE 04:40:22 31° E 04:40:22 31° E
ATLAS 3B R/B 4.1 04:44:24 23° N 04:44:24 23° N 04:48:42 10° NNE
CENTAUR R/B 3.0 04:50:26 51° N 04:50:26 51° N 04:56:27 10° NE
Cosmos 1190 Rocket 4.4 04:50:28 60° ENE 04:50:28 60° ENE 04:55:05 10° NNE
CZ-4C R/B 3.1 04:53:00 42° NNW 04:55:31 64° NE 05:03:20 10° SE
Nadezhda 1 Rocket 4.4 04:58:56 48° SSW 04:58:56 48° SSW 05:03:26 10° S
IDEFIX/ARIANE 42P 3.6 05:01:21 10° NNE 05:06:27 46° E 05:11:29 10° S
Cosmos 1844 Rocket 3.4 05:01:40 10° S 05:07:02 51° ESE 05:12:25 10° NE
Cosmos 371 Rocket 4.5 05:13:39 22° N 05:16:24 41° ENE 05:20:59 10° SE
Meteor 1-21 Rocket 4.1 05:14:02 30° NNW 05:17:06 84° WSW 05:22:52 10° S
Abrixas rocket 4.0 05:22:14 31° ENE 05:22:14 31° ENE 05:24:06 10° E
Cosmos 2082 Rocket 4.1 05:18:54 10° N 05:23:26 24° NE 05:27:56 10° E
SL-14 R/B 3.7 05:23:35 55° NE 05:24:01 59° ENE 05:27:49 10° SSE
CZ-2C R/B 3.3 05:20:13 10° NNE 05:24:38 45° E 05:29:05 10° S
COSMOS 2406 3.1 05:23:26 43° NNW 05:25:26 89° WSW 05:31:07 10° SSE
SKYMED 2 3.5 05:25:06 10° S 05:29:00 67° SSW 05:29:00 67° SSW
Cosmos 2181 Rocket 3.9 05:26:03 10° N 05:32:24 88° W 05:38:37 10° S
Cosmos 407 Rocket 3.4 05:34:52 54° W 05:35:28 58° WNW 05:40:41 10° NNE
Cosmos 1315 Rocket 2.9 05:36:04 35° N 05:37:38 72° ENE 05:41:36 10° SSE
Cosmos 1745 Rocket 4.4 05:39:13 38° WNW 05:39:13 38° WNW 05:44:26 10° N
Cosmos 676 Rocket 3.8 05:34:28 12° SSW 05:39:20 82° WNW 05:44:34 10° NNE
Lacrosse 5 2.7 05:42:57 32° SW 05:42:57 32° SW 05:47:09 10° S
DELTA 2 R/B (1) 4.5 05:42:59 29° SW 05:44:53 38° S 05:50:00 10° ESE
NOAA 6 3.9 05:39:49 10° N 05:45:01 74° WNW 05:50:11 10° SSW
Cosmos 1626 3.1 05:43:09 10° N 05:46:43 46° ENE 05:50:19 10° SSE
Cosmos 1140 Rocket 3.3 05:45:53 10° SSW 05:51:01 82° WNW 05:56:12 10° NNE
Radarsat Rocket 4.2 05:44:22 10° NNE 05:51:25 87° ESE 05:57:36 10° SSW
Cosmos 1954 Rocket 3.8 05:46:22 10° SSW 05:51:32 76° WNW 05:56:45 10° NNE
EO 1 Del DPAF 3.2 05:48:16 10° S 05:52:02 58° WSW 05:52:21 56° WNW
ATLAS CENTAUR R/B 2.3 05:50:19 24° N 05:52:18 43° NE 05:56:21 10° ESE
Feng Yun 1-1 Rocket 4.1 05:46:57 10° N 05:52:23 70° WNW 05:57:43 10° SSW
PAYLOAD A 3.8 05:48:02 10° N 05:53:01 71° WNW 05:57:46 10° SSW
SL-27 R/B 4.3 05:52:46 11° N 05:55:55 31° ENE 05:59:12 10° SE
CZ-4B R/B 4.2 05:52:11 10° N 05:55:21 25° NW 05:55:21 25° NW
Cosmos 1076 Rocket 3.6 05:58:29 28° NNW 06:00:29 52° W 06:04:39 10° S
Cosmos 1833 Rocket 3.8 05:55:33 10° NNW 06:00:55 42° NE 06:06:15 10° SE
Cosmos 2151 4.5 05:58:16 10° N 06:02:19 37° ENE 06:06:19 10° SE
BREEZE-M DEB (TANK) 3.3 06:01:20 39° WNW 06:02:35 75° NNE 06:11:33 10° ESE
Cosmos 1470 4.0 06:04:40 25° NNW 06:04:40 25° NNW 06:06:46 10° N
Okean-O 2.7 05:59:44 10° N 06:04:04 51° WNW 06:08:21 10° SW
Okean 3 Rocket 3.8 06:02:21 26° NW 06:04:28 46° W 06:08:41 10° SSW
Cosmos 2058 4.1 06:03:41 10° N 06:07:45 45° ENE 06:11:47 10° SSE
USA 234 4.1 06:02:32 10° ENE 06:08:24 37° N 06:12:07 21° NW
Cosmos 332 Rocket 3.8 06:05:49 19° NNW 06:09:20 64° WSW 06:14:09 10° S
Cosmos 2263 Rocket 3.6 06:10:34 18° NW 06:10:34 18° NW 06:14:03 10° N
Cosmos 1400 Rocket 4.4 06:12:39 20° WSW 06:12:39 20° WSW 06:14:33 10° SW
Cosmos 1766 Rocket 3.4 06:06:56 10° NNW 06:11:18 71° W 06:15:39 10° S
Cosmos 1570 Rocket 3.9 06:06:26 11° NNW 06:11:28 85° WSW 06:16:42 10° SSE
Cosmos 1328 3.7 06:08:21 13° NNW 06:11:47 62° W 06:15:43 10° S
Cosmos 1023 Rocket 4.5 06:07:05 10° SW 06:12:03 54° WNW 06:17:05 10° NNE
Shenzhou-11 Module 4.0 06:12:21 14° SSW 06:14:14 23° SSE 06:16:43 10° ESE
Timation 1 Rocket 4.3 06:08:22 10° SSW 06:14:23 89° WNW 06:20:27 10° NNE
Tiangong 2 4.1 06:13:59 10° S 06:15:19 12° SSE 06:16:39 10° SE
BREEZE-M DEB (TANK) 3.4 06:14:12 30° WNW 06:15:56 76° NNE 06:25:02 10° ESE
COSMO-SKYMED 1 3.6 06:14:11 10° SSW 06:17:36 24° W 06:17:36 24° W
Cosmos 1174 4.5 06:17:49 13° NNW 06:21:44 52° NE 06:25:18 10° SE
Cosmos 304 Rocket 4.4 06:17:00 10° NNW 06:21:44 56° ENE 06:26:26 10° SE
CZ-3B R/B 3.8 06:20:34 27° WNW 06:22:14 78° SW 06:31:55 10° SE
COSMOS 2455 3.7 06:22:33 20° W 06:25:30 30° NW 06:30:46 10° NNE
Cosmos 2278 Rocket 2.3 06:23:13 10° SSW 06:28:52 82° ESE 06:34:34 10° NNE
Cosmos 1763 Rocket 4.1 06:27:11 10° NNW 06:32:10 54° ENE 06:37:09 10° SE
COSMOS 2441 4.4 06:28:32 10° N 06:33:12 52° WNW 06:37:51 10° SSW
Cosmos 1842 Rocket 4.1 06:30:56 10° S 06:35:21 64° E 06:39:49 10° NNE
CZ-4 R/B 2.2 06:32:24 10° NNE 06:36:31 55° E 06:40:30 10° S
ATLAS 3B R/B 4.3 06:31:46 10° NW 06:36:32 19° N 06:41:11 10° NE
Cosmos 2184 Rocket 4.0 06:30:29 10° SSW 06:36:40 66° W 06:42:59 10° N
Cosmos 1741 Rocket 4.0 06:35:52 10° SSW 06:41:05 64° WNW 06:46:19 10° NNE
CENTAUR R/B 4.0 06:37:38 15° WNW 06:41:46 25° NNW 06:47:44 10° NE
CSL-04 Rocket 3.8 06:38:29 10° NNE 06:43:56 84° ESE 06:49:16 10° SSW
CZ-4C R/B 3.5 06:38:12 13° NW 06:44:00 38° WSW 06:51:11 10° S
IDEFIX/ARIANE 42P 3.4 06:41:24 10° N 06:45:49 28° WNW 06:50:14 10° WSW
Cosmos 1703 3.4 06:43:21 10° NNW 06:47:14 52° W 06:51:04 10° S
Ariane Rocket 3.2 06:43:00 10° NNE 06:48:08 80° ESE 06:53:14 10° SSW
Cosmos 1908 3.5 06:45:18 10° S 06:49:13 77° E 06:53:10 10° NNE
Cosmos 1844 Rocket 3.4 06:46:19 10° WSW 06:51:11 30° NW 06:56:05 10° N
AQUARIUS 4.1 06:48:31 10° N 06:53:03 76° WNW 06:57:32 10° SSW
USA 81 4.2 06:48:25 10° N 06:53:44 80° E 06:59:00 10° S
Meteor 2-15 4.5 06:48:21 10° N 06:54:27 90° ENE 07:00:31 10° S
Nadezhda 3 Rocket 4.0 06:48:48 10° NNW 06:55:10 75° W 07:01:27 10° S
Cosmos 371 Rocket 4.3 06:52:33 10° NW 06:56:37 27° W 07:00:40 10° SSW
Abrixas rocket 2.4 06:54:40 13° WNW 06:57:27 64° SSW 07:00:41 10° ESE
MSX 4.3 06:52:52 10° N 06:58:05 37° WNW 07:03:17 10° SW
Cosmos 1844 4.3 06:53:57 10° WSW 06:59:07 34° NW 07:04:17 10° NNE
CZ-2C R/B 3.3 06:59:05 10° NNW 07:02:39 23° WNW 07:06:14 10° WSW
Meteor 2-1 Rocket 4.1 06:58:40 10° SSW 07:04:10 78° WNW 07:09:46 10° N
Cosmos 1484 Rocket 3.3 07:02:57 10° N 07:06:20 34° WNW 07:09:43 10° SW
Cosmos 2082 Rocket 2.2 07:02:28 10° NNW 07:08:04 70° WSW 07:13:38 10° SSE
ARGOS Delta rocket 4.3 07:03:36 10° SSE 07:08:20 67° ENE 07:13:24 10° N
Cosmos-2242 4.1 07:08:19 10° SW 07:11:47 23° WNW 07:15:15 10° NNW
Thor Agena Rocket 4.4 07:09:31 10° SSW 07:14:08 31° W 07:18:48 10° NNW
CSL-04 Debris 4.2 07:09:02 10° N 07:14:28 62° WNW 07:19:53 10° SSW
SMAP 3.3 07:10:41 10° N 07:15:09 47° WNW 07:19:36 10° SW
CZ-4 R/B 4.4 07:11:38 10° NNE 07:15:49 84° WNW 07:19:58 10° SSW
FENGYUN 3A 4.4 07:11:14 10° NNE 07:16:35 60° E 07:21:55 10° S
